Regional Weather Roundup
Issued by NWS

Home | Current Version | Previous Version | Graphics & Text | Print | Product List | Glossary Off
Versions: 1 2 3 4 5 6 7 8 9 10 11 12 13 14 15 16 17 18 19 20 21 22 23 24 25 26 27 28 29 30 31 32 33 34 35 36 37 38 39 40 41 42 43 44 45 46 47 48 49 50

000
ASUS43 KFSD 020410
RWRSD

WEATHER ROUNDUP FOR SOUTH DAKOTA
NATIONAL WEATHER SERVICE SIOUX FALLS SD
1100 PM CDT FRI AUG 01 2014

NOTE: "FAIR" INDICATES FEW OR NO CLOUDS BELOW 12,000 FEET WITH NO
SIGNIFICANT WEATHER AND/OR OBSTRUCTIONS TO VISIBILITY.


SDZ001>005-009-010-012>017-020500-
NORTHWEST AND NORTH CENTRAL SOUTH DAKOTA

CITY           SKY/WX    TMP DP  RH WIND       PRES   REMARKS
BUFFALO          N/A     71  58  63 NE18      30.03R
FAITH            N/A     66  56  70 S12       30.03R
MOBRIDGE       MOCLDY    74  57  55 NE16      30.04R
$$

SDZ012>016-024>037-041>051-057-063-072>074-020500-
SOUTHWEST AND SOUTH CENTRAL SOUTH DAKOTA

CITY           SKY/WX    TMP DP  RH WIND       PRES   REMARKS
RAPID CTY ARPT PTCLDY    72  48  42 W7        30.08R
PIERRE         CLOUDY    73  57  57 S9        29.99R
CUSTER         PTCLDY    60  47  61 NW3       30.26R
ELLSWORTH AFB  PTCLDY    71  50  46 W8        30.07R
PHILIP         CLEAR     70  55  59 SE10      30.04R
PINE RIDGE     PTCLDY    62  53  72 CALM      30.10R
WINNER         RAIN      69  59  70 SE12      30.10R
$$

SDZ004>011-016>023-039-040-020500-
NORTHEAST SOUTH DAKOTA

CITY           SKY/WX    TMP DP  RH WIND       PRES   REMARKS
ABERDEEN       PTCLDY    65  59  81 E6        30.07R
WATERTOWN      PTCLDY    69  59  70 SE3       30.10R
SISSETON         N/A     66  64  93 NW5       30.07R
$$

SDZ017-020-022-023-036>040-048>070-020500-
SOUTHEAST SOUTH DAKOTA

CITY           SKY/WX    TMP DP  RH WIND       PRES   REMARKS
SIOUX FALLS    PTCLDY    71  58  63 SW3       30.12R
HURON          MOCLDY    69  57  65 SE6       30.07R
CHAMBERLAIN    LGT RAIN  67  62  85 CALM      30.12F
MITCHELL       PTCLDY    70  60  70 S8        30.09R
YANKTON        CLEAR     68  61  77 CALM      30.12R
$$

ABBREVIATIONS USED IN REMARKS
   TC - TEMPERATURE IN CELSIUS
  WCI - WIND CHILL INDEX
   HX - HEAT INDEX
  VSB - VISIBILITY




USA.gov is the U.S. government's official web portal to all federal, state and local government web resources and services.